Simultaneous Nadir Overpasses (SNOs) Predictions

Prediction of SNOs between METOP-A and NOAA-19 Satellite Orbit:

Table of predicted SNOs for the next 14.0 days since TLE Epoch: 6/28/2015
Index Date (METOP-A) Time (METOP-A) Lat,Lon (METOP-A) SZA (METOP-A ) Date (NOAA-19) Time (NOAA-19) Lat,Lon (NOAA-19) SZA (NOAA-19 ) Distance(km) Time Diff (sec)
1 07/07/2015 10:47:16 75.68, 17.00 53.02 07/07/2015 10:46:10 75.68, 13.67 53.10 91.55 66
2 07/07/2015 11:38:09 -75.15,-177.27 127.48 07/07/2015 11:36:56 -75.15,-177.36 127.47 2.50 73
3 07/07/2015 12:28:49 75.13, -9.99 52.51 07/07/2015 12:28:00 75.10, -9.97 52.48 3.43 49
4 07/07/2015 13:19:31 -75.12, 157.32 127.50 07/07/2015 13:18:58 -75.12, 157.22 127.49 2.87 33
5 07/07/2015 14:10:11 75.11, -35.40 52.49 07/07/2015 14:10:02 75.07, -35.40 52.46 3.88 9
6 07/07/2015 15:00:53 -75.10, 131.91 127.51 07/07/2015 15:01:00 -75.09, 131.79 127.52 3.35 7
7 07/07/2015 15:51:34 75.03, -60.95 52.43 07/07/2015 15:52:04 75.04, -60.82 52.44 3.70 30
8 07/07/2015 16:42:15 -75.08, 106.50 127.53 07/07/2015 16:43:02 -75.06, 106.37 127.54 3.91 47
9 07/07/2015 17:32:56 75.01, -86.35 52.42 07/07/2015 17:34:06 75.01, -86.25 52.42 3.15 70
10 07/07/2015 18:23:47 -74.57, 79.77 127.99 07/07/2015 18:24:55 -74.61, 82.18 128.01 71.37 68




NCC Satellite Simultaneous Nadir Overpasses (SNOs) Prediction Service
